Вернуться в каталог

STARLINK-36658

АктивенСвязьVLEO
NORAD 67846·PAYLOAD·🇺🇸 United States

Запущен Feb 16, 2026 с Vandenberg Space Force Base

Loading…

Ближайшие Пролёты (ближайшие 24 часа)

TLE

СвежийSource: CelesTrak SupGP

Эпоха: Sep 15, 2026, 03:17 UTC

1 67846C 26033AB  26258.13729167 -.00013722  00000+0 -49692-3 0  2581
2 67846  43.0000 277.4369 0001491 266.9007 117.2411 15.27590491    14

Отслеживайте STARLINK-36658 в реальном времени с AllMySat

Download on the App Store